Location: Austin
(30.3000°N, 97.7500°W)
Time: 10:31:11
(UTC-05:00)

CARTOSAT-1 - Pass Details

Date: 05 September 2024
Orbit: 603 x 607 km, 97.6° (Epoch: 10 September)

Event Time Altitude Azimuth Distance (km) Brightness Sun altitude
Exits shadow 21:06:10 34° 116° (ESE) 995 4.1 -17.2°
Maximum altitude 21:07:20 43° 75° (ENE) 851 3.9 -17.5°
Drops below altitude 10° 21:11:21 10° 4° (N) 1,953 6.3 -18.3°
Sets 21:13:36 0° 357° (N) 2,859 7.3 -18.8°
